Location: Elmsmere
(40.9284°N, 73.8207°W)
Time: 01:02:58
(UTC+00:00)

STARLINK-2701 - Visible Passes

Search period start: 24 October 2021 00:00
Search period end: 03 November 2021 00:00
Orbit: 546 x 548 km, 53.1° (Epoch: 23 October)

Date Brightness Start Highest point End Pass type
(mag) Time Alt. Az. Time Alt. Az. Time Alt. Az.
24 Oct 5.6 10:32:33 10° SSW 10:36:10 30° SE 10:39:48 10° ENE visible
25 Oct 5.0 10:25:55 10° SSW 10:29:47 41° SE 10:33:40 10° ENE visible
26 Oct 4.3 10:19:22 10° SW 10:23:23 55° SE 10:27:26 10° ENE visible
27 Oct 3.7 10:12:54 10° SW 10:17:01 75° SE 10:21:08 10° NE visible
28 Oct 6.4 08:31:54 14° ESE 08:31:54 14° ESE 08:33:50 10° E visible
28 Oct 3.5 10:07:34 17° SW 10:10:39 82° NW 10:14:47 10° NE visible
29 Oct 6.4 08:26:36 16° E 08:26:36 16° E 08:28:05 10° E visible
29 Oct 3.6 10:02:15 28° WSW 10:04:17 63° NW 10:08:24 10° NE visible
30 Oct 6.5 08:21:06 15° E 08:21:06 15° E 08:22:04 10° ENE visible
30 Oct 3.9 09:56:44 36° W 09:57:57 49° NNW 10:01:58 10° NE visible
31 Oct 6.7 08:15:26 13° ENE 08:15:26 13° ENE 08:15:54 10° ENE visible
31 Oct 4.2 09:51:03 37° NW 09:51:37 39° NNW 09:55:30 10° NE visible
01 Nov 4.5 09:45:15 32° NNW 09:45:17 32° NNW 09:49:01 10° NE visible
02 Nov 4.9 09:39:21 27° NNW 09:39:21 27° NNW 09:42:31 10° NE visible
